1535004000.02,48257,21.0,74550.0,8.19,-12.97,-13.79,0,*70
1535004001.27,48258,21.0,74548.5,8.21,-12.79,-13.55,0,*7A
1535004002.49,48259,21.0,74548.0,8.23,-12.93,-13.61,0,*7A
1535004003.7,48260,21.0,74548.8,8.23,-13.19,-13.79,0,*7A
1535004004.89,48261,21.0,74544.0,8.23,-13.07,-13.73,0,*7E
1535004006.14,48262,21.0,74550.8,8.25,-13.11,-13.83,0,*73
1535004007.33,48263,21.0,74544.5,8.27,-12.93,-13.65,0,*73
1535004008.56,48264,20.94,74546.8,8.27,-13.19,-13.97,0,*7A
1535004009.78,48265,21.0,74550.3,8.31,-13.19,-13.87,0,*7D
1535004010.97,48266,21.0,74548.5,8.31,-13.43,-14.19,0,*71
1535004012.19,48267,21.0,74548.3,8.31,-13.29,-14.15,0,*70
1535004013.41,48268,21.0,74548.0,8.33,-13.47,-14.29,0,*7A
1535004014.68,48269,21.0,74550.0,8.33,-13.87,-14.75,0,*7E
1535004015.93,48270,21.0,74548.0,8.33,-13.87,-14.89,0,*75
1535004017.17,48271,21.0,74546.3,8.35,-14.01,-14.89,0,*7B
1535004018.4,48272,21.0,74544.5,8.33,-14.37,-15.25,0,*7C
1535004019.6,48273,21.0,74550.0,8.35,-14.61,-15.49,0,*72
1535004020.86,48274,21.0,74550.3,8.33,-14.89,-15.81,0,*71
1535004022.1,48275,21.0,74550.0,8.33,-14.75,-15.67,0,*7B
1535004023.32,48276,21.0,74548.5,8.35,-14.75,-15.71,0,*79
1535004024.59,48277,21.0,74550.0,8.33,-14.79,-15.81,0,*7D
1535004025.81,48278,21.0,74550.0,8.33,-14.65,-15.63,0,*73
1535004027.09,48279,21.0,74554.3,8.33,-14.51,-15.35,0,*76
1535004028.37,48280,21.0,74550.5,8.33,-14.01,-14.93,0,*78
1535004029.59,48281,21.0,74554.0,8.33,-13.73,-14.61,0,*76
1535004030.87,48282,21.0,74554.0,8.33,-13.61,-14.51,0,*75
1535004032.09,48283,21.0,74550.5,8.33,-13.43,-14.33,0,*70
1535004033.31,48284,21.0,74550.5,8.35,-13.11,-13.87,0,*7E
1535004034.53,48285,21.0,74548.3,8.39,-12.35,-13.11,0,*7B
1535004035.77,48286,21.0,74550.5,8.41,-12.65,-13.43,0,*75
1535004037.02,48287,21.0,74550.5,8.41,-12.65,-13.43,0,*74
1535004038.27,48288,21.0,74550.0,8.47,-12.47,-13.29,0,*71
1535004039.49,48289,21.0,74554.5,8.47,-12.43,-13.23,0,*7E
1535004040.75,48290,21.0,74554.5,8.53,-12.53,-13.33,0,*73
1535004041.99,48291,21.0,74554.0,8.55,-12.61,-13.47,0,*76
1535004043.21,48292,21.0,74552.8,8.53,-12.93,-13.79,0,*73
1535004044.45,48293,21.0,74554.3,8.55,-12.89,-13.83,0,*7A
1535004045.68,48294,21.0,74552.5,8.55,-13.43,-14.29,0,*7D
1535004046.93,48295,21.0,74552.3,8.55,-13.19,-14.01,0,*79
1535004048.19,48296,21.0,74554.0,8.57,-13.29,-14.01,0,*7B
1535004049.42,48297,21.0,74552.3,8.57,-13.19,-14.01,0,*79
1535004050.65,48298,21.0,74552.3,8.63,-12.93,-13.73,0,*70
1535004051.89,48299,21.0,74552.3,8.59,-12.93,-13.83,0,*77
1535004053.15,48300,21.0,74552.8,8.65,-12.79,-13.61,0,*71
1535004054.38,48301,21.0,74554.8,8.65,-12.75,-13.51,0,*7F
1535004055.63,48302,21.0,74552.5,8.67,-12.57,-13.43,0,*7D
1535004056.85,48303,21.0,74554.5,8.69,-12.47,-13.29,0,*7F
1535004058.1,48304,21.0,74552.0,8.71,-12.29,-13.01,0,*73
1535004059.34,48305,21.0,74554.8,8.71,-12.43,-13.29,0,*74
1535004060.57,48306,21.0,74550.8,8.73,-12.07,-12.89,0,*7E
1535004061.85,48307,21.0,74554.5,8.75,-11.89,-12.75,0,*7F
1535004063.1,48308,21.0,74550.8,8.77,-12.35,-13.15,0,*71
1535004064.36,48309,21.0,74548.8,8.77,-12.07,-12.89,0,*75
1535004065.61,48310,21.0,74552.0,8.81,-12.15,-13.11,0,*77
1535004066.83,48311,21.0,74552.8,8.81,-12.03,-12.97,0,*7E
1535004068.06,48312,21.0,74552.8,8.81,-12.25,-13.15,0,*72
1535004069.31,48313,21.0,74548.3,8.89,-12.07,-12.93,0,*74
1535004070.56,48314,21.0,74554.3,8.87,-12.07,-12.79,0,*79
1535004071.8,48315,21.0,74554.0,8.91,-11.97,-12.83,0,*70
1535004073.03,48316,21.0,74548.8,8.91,-12.15,-12.97,0,*7F
1535004074.22,48317,21.0,74550.0,8.95,-12.43,-13.43,0,*71
1535004075.43,48318,20.94,74548.0,8.95,-12.65,-13.65,0,*7E
1535004076.66,48319,21.0,74554.5,8.95,-12.47,-13.33,0,*7C
1535004077.89,48320,21.0,74550.8,8.97,-12.29,-13.19,0,*74
1535004079.13,48321,20.94,74550.0,8.99,-12.35,-13.29,0,*75
1535004080.38,48322,21.0,74550.3,9.01,-12.15,-13.15,0,*7B
1535004081.57,48323,21.0,74554.0,8.99,-12.47,-13.43,0,*7E
1535004082.77,48324,21.0,74552.3,9.03,-12.29,-13.23,0,*75
1535004084.01,48325,21.0,74554.5,9.03,-12.15,-13.01,0,*7B
1535004085.28,48326,21.0,74552.0,9.05,-11.93,-12.79,0,*7D
1535004086.53,48327,21.0,74550.8,9.05,-11.97,-12.93,0,*7C
1535004087.82,48328,21.0,74552.3,9.11,-11.93,-12.79,0,*76
1535004089.09,48329,20.94,74550.3,9.11,-11.81,-12.75,0,*78
1535004090.32,48330,21.0,74552.0,9.13,-11.97,-12.89,0,*76
1535004091.55,48331,21.0,74550.3,9.13,-11.97,-12.89,0,*77
1535004092.8,48332,21.0,74548.5,9.17,-11.73,-12.65,0,*78
1535004094.06,48333,21.0,74550.0,9.15,-11.81,-12.65,0,*76
1535004095.29,48334,20.94,74544.8,9.17,-11.97,-12.97,0,*79
1535004096.52,48335,21.0,74552.5,9.21,-11.97,-12.89,0,*72
1535004097.71,48336,21.0,74552.0,9.21,-12.43,-13.43,0,*7C
1535004098.94,48337,21.0,74552.8,9.21,-12.97,-13.97,0,*7D
1535004100.19,48338,21.0,74550.0,9.21,-12.75,-13.83,0,*7B
1535004101.47,48339,21.0,74548.5,9.23,-12.75,-13.83,0,*78
1535004102.69,48340,21.0,74548.0,9.25,-12.93,-13.97,0,*7D
1535004103.94,48341,21.0,74550.0,9.23,-12.71,-13.69,0,*77
1535004105.18,48342,21.0,74548.3,9.25,-12.65,-13.79,0,*76
1535004106.42,48343,21.0,74550.5,9.25,-12.79,-13.79,0,*7A
1535004107.63,48344,21.0,74550.8,9.25,-12.83,-13.93,0,*7C
1535004108.85,48345,21.0,74548.0,9.25,-12.79,-13.93,0,*78
1535004110.09,48346,21.0,74550.0,9.27,-12.65,-13.65,0,*7D
1535004111.34,48347,21.0,74548.0,9.27,-12.79,-13.93,0,*78
1535004112.61,48348,21.0,74548.5,9.27,-12.71,-13.83,0,*7E
1535004113.85,48349,20.94,74546.5,9.31,-12.61,-13.65,0,*71
1535004115.11,48350,21.0,74550.5,9.31,-12.65,-13.79,0,*70
1535004116.38,48351,20.94,74548.8,9.31,-12.79,-13.87,0,*7D
1535004117.62,48352,21.0,74548.5,9.31,-12.65,-13.65,0,*7F
1535004118.86,48353,21.0,74552.0,9.31,-12.65,-13.73,0,*79
1535004120.08,48354,21.0,74548.0,9.33,-12.89,-13.87,0,*75
1535004121.3,48355,21.0,74552.0,9.33,-12.71,-13.73,0,*78
1535004122.57,48356,21.0,74554.5,9.35,-12.75,-13.83,0,*76
1535004123.85,48357,21.0,74550.0,9.35,-12.35,-13.33,0,*78
1535004125.07,48358,21.0,74550.5,9.37,-12.53,-13.65,0,*76
1535004126.29,48359,20.94,74550.3,9.37,-12.53,-13.55,0,*74
1535004127.55,48360,21.0,74550.3,9.39,-12.71,-13.79,0,*7E
1535004128.79,48361,21.0,74550.5,9.39,-12.53,-13.51,0,*75
1535004130.01,48362,21.0,74550.3,9.39,-12.43,-13.43,0,*74
1535004131.23,48363,20.94,74548.0,9.41,-12.39,-13.51,0,*74
1535004132.5,48364,21.0,74548.0,9.41,-12.75,-13.83,0,*74
1535004133.7,48365,21.0,74550.3,9.43,-12.43,-13.55,0,*79
1535004134.91,48366,21.0,74548.8,9.43,-12.47,-13.55,0,*7E
1535004136.11,48367,21.0,74548.0,9.43,-12.43,-13.55,0,*7B
1535004137.33,48368,21.0,74550.5,9.43,-12.35,-13.47,0,*76
1535004138.55,48369,20.94,74546.5,9.45,-12.47,-13.69,0,*78
1535004139.76,48370,21.0,74550.8,9.47,-12.65,-13.69,0,*72
1535004140.98,48371,21.0,74548.5,9.47,-12.53,-13.65,0,*7A
1535004142.2,48372,21.0,74544.8,9.47,-12.65,-13.65,0,*7C
1535004143.47,48373,21.0,74548.8,9.49,-12.79,-13.83,0,*76
1535004144.71,48374,21.0,74550.5,9.49,-12.83,-13.73,0,*7B
1535004145.93,48375,21.0,74548.0,9.53,-12.39,-13.47,0,*77
1535004147.2,48376,21.0,74548.8,9.53,-12.53,-13.61,0,*7C
1535004148.42,48377,20.94,74546.5,9.53,-12.47,-13.47,0,*7C
1535004149.66,48378,21.0,74550.3,9.53,-12.61,-13.65,0,*77
1535004150.85,48379,21.0,74552.3,9.55,-12.89,-13.93,0,*7F
1535004152.07,48380,21.0,74548.3,9.55,-12.71,-13.65,0,*77
1535004153.32,48381,21.0,74550.5,9.57,-12.47,-13.61,0,*75
1535004154.54,48382,21.0,74550.8,9.57,-12.43,-13.55,0,*75
1535004155.81,48383,20.94,74546.8,9.57,-12.57,-13.61,0,*76
1535004157.04,48384,21.0,74550.0,9.59,-12.11,-12.97,0,*75
1535004158.31,48385,21.0,74550.3,9.61,-11.81,-12.79,0,*75
1535004159.59,48386,21.0,74550.3,9.61,-11.63,-12.53,0,*72
1535004160.84,48387,21.0,74552.8,9.63,-11.67,-12.65,0,*70
1535004162.1,48388,21.0,74550.3,9.65,-12.07,-13.19,0,*76
1535004163.29,48389,21.0,74548.8,9.67,-12.29,-13.43,0,*76
1535004164.52,48390,21.0,74548.8,9.67,-12.57,-13.55,0,*70
1535004165.78,48391,21.0,74548.5,9.69,-11.97,-13.01,0,*71
1535004167.0,48392,21.0,74548.8,9.69,-12.43,-13.47,0,*7A
1535004168.24,48393,21.0,74548.8,9.73,-12.65,-13.69,0,*78
1535004169.46,48394,21.0,74548.8,9.71,-12.57,-13.51,0,*77
1535004170.65,48395,21.0,74550.0,9.71,-12.47,-13.43,0,*74
1535004171.91,48396,21.0,74552.5,9.73,-12.53,-13.55,0,*77
1535004173.12,48397,21.0,74552.8,9.71,-12.71,-13.69,0,*7B
1535004174.39,48398,21.0,74550.0,9.73,-12.65,-13.79,0,*72
1535004175.66,48399,21.0,74550.5,9.73,-12.35,-13.37,0,*7C
1535004176.93,48400,21.0,74554.0,9.77,-12.15,-13.29,0,*72
1535004178.14,48401,20.94,74550.8,9.79,-12.25,-13.23,0,*74
1535004179.33,48402,20.94,74550.0,9.79,-12.03,-13.11,0,*72
1535004180.58,48403,21.0,74554.0,9.81,-12.15,-13.15,0,*77
1535004181.81,48404,21.0,74552.5,9.83,-12.21,-13.29,0,*7A
1535004183.03,48405,21.0,74552.0,9.83,-12.39,-13.37,0,*7D
1535004184.24,48406,20.94,74550.8,9.81,-12.43,-13.47,0,*76
1535004185.49,48407,20.94,74548.8,9.83,-12.35,-13.37,0,*73
1535004186.71,48408,21.0,74548.5,9.85,-12.39,-13.43,0,*75
1535004187.93,48409,21.0,74552.3,9.85,-12.25,-13.23,0,*7F
1535004189.17,48410,21.0,74552.8,9.87,-12.15,-13.19,0,*7F
1535004190.4,48411,20.94,74548.0,9.87,-12.29,-13.33,0,*79
1535004191.59,48412,20.94,74550.3,9.87,-12.03,-13.15,0,*76
1535004192.84,48413,21.0,74552.3,9.89,-12.11,-13.15,0,*7A
1535004194.06,48414,21.0,74552.0,9.91,-12.15,-13.15,0,*70
1535004195.29,48415,21.0,74552.5,9.93,-12.21,-13.15,0,*74
1535004196.52,48416,21.0,74550.5,9.95,-12.53,-13.51,0,*74
1535004197.74,48417,20.94,74550.0,9.93,-12.43,-13.51,0,*72
1535004198.97,48418,21.0,74552.5,9.93,-12.21,-13.23,0,*7C
1535004200.2,48419,21.0,74550.8,9.95,-11.89,-12.93,0,*70
1535004201.42,48420,21.0,74550.5,9.95,-12.07,-13.07,0,*73
1535004202.65,48421,21.0,74552.3,9.99,-12.35,-13.51,0,*7C
1535004203.87,48422,21.0,74554.5,9.99,-11.89,-13.07,0,*78
1535004205.06,48423,21.0,74554.8,9.99,-12.39,-13.47,0,*75
1535004206.3,48424,21.0,74554.0,10.01,-12.57,-13.69,0,*4F
1535004207.55,48425,21.0,74552.0,10.01,-12.57,-13.73,0,*45
1535004208.77,48426,21.0,74554.0,10.03,-12.71,-13.69,0,*4B
1535004210.02,48427,21.0,74554.3,10.03,-12.57,-13.37,0,*45
1535004211.26,48428,21.0,74554.5,10.05,-12.29,-13.37,0,*45
1535004212.46,48429,21.0,74552.8,10.05,-12.39,-13.43,0,*46
1535004213.7,48430,20.94,74554.8,10.05,-11.93,-12.97,0,*45
1535004214.99,48431,21.0,74554.0,10.07,-11.67,-12.75,0,*41
1535004216.19,48432,21.0,74552.0,10.09,-12.03,-13.07,0,*49
1535004217.43,48433,21.0,74554.3,10.09,-12.15,-13.19,0,*40
1535004218.71,48434,21.0,74554.5,10.11,-11.97,-13.01,0,*4E
1535004219.95,48435,21.0,74554.3,10.11,-11.45,-12.43,0,*47
1535004221.18,48436,21.0,74554.5,10.13,-11.33,-12.43,0,*47
1535004222.39,48437,21.0,74552.5,10.13,-11.45,-12.43,0,*47
1535004223.6,48438,21.0,74554.3,10.13,-11.41,-12.43,0,*4C
1535004224.85,48439,20.94,74550.8,10.17,-11.67,-12.75,0,*48
1535004226.09,48440,21.0,74552.8,10.17,-11.41,-12.53,0,*46
1535004227.37,48441,21.0,74552.0,10.23,-11.77,-12.79,0,*4D
1535004228.62,48442,21.0,74552.3,10.23,-11.93,-13.07,0,*4C
1535004229.91,48443,21.0,74554.0,10.23,-11.59,-12.75,0,*4F
1535004231.16,48444,21.0,74554.8,10.25,-11.81,-12.75,0,*4B
1535004232.44,48445,21.0,74554.0,10.27,-11.67,-12.75,0,*40
1535004233.67,48446,21.0,74554.0,10.27,-12.03,-13.11,0,*41
1535004234.92,48447,21.0,74552.5,10.27,-11.89,-12.97,0,*4E
1535004236.21,48448,21.0,74552.3,10.31,-11.33,-12.35,0,*4F
1535004237.47,48449,21.0,74554.5,10.31,-11.07,-12.03,0,*4C
1535004238.73,48450,21.0,74552.8,10.35,-11.41,-12.53,0,*47
1535004240.01,48451,21.0,74554.5,10.35,-11.67,-12.71,0,*42
1535004241.29,48452,21.0,74552.5,10.35,-11.73,-12.75,0,*40
1535004242.54,48453,21.0,74554.8,10.37,-11.85,-12.93,0,*42
1535004243.83,48454,21.0,74554.8,10.37,-11.63,-12.71,0,*41
1535004245.09,48455,21.0,74554.5,10.39,-11.55,-12.53,0,*4B
1535004246.35,48456,21.0,74554.0,10.39,-11.51,-12.53,0,*4C
1535004247.59,48457,21.0,74554.0,10.45,-11.45,-12.43,0,*42
1535004248.86,48458,21.0,74556.5,10.45,-11.59,-12.61,0,*40
1535004250.09,48459,21.0,74552.5,10.45,-11.15,-12.25,0,*49
1535004251.32,48460,21.0,74552.3,10.49,-11.11,-12.21,0,*4F
1535004252.55,48461,20.94,74550.3,10.49,-11.11,-12.21,0,*4E
1535004253.82,48462,21.0,74554.3,10.49,-10.97,-11.93,0,*48
1535004255.04,48463,20.94,74552.3,10.53,-11.19,-12.21,0,*4F
1535004256.29,48464,20.94,74550.5,10.55,-11.51,-12.57,0,*43
1535004257.57,48465,21.0,74554.0,10.57,-11.73,-12.71,0,*44
1535004258.82,48466,20.94,74552.5,10.55,-11.73,-12.61,0,*44
1535004260.1,48467,20.94,74550.5,10.57,-11.63,-12.61,0,*46
1535004261.33,48468,20.94,74552.5,10.61,-11.41,-12.39,0,*41
1535004262.54,48469,20.94,74550.3,10.59,-11.45,-12.43,0,*42
1535004263.76,48470,21.0,74552.0,10.63,-11.51,-12.47,0,*42
1535004264.97,48471,21.0,74554.5,10.63,-11.11,-12.21,0,*47
1535004266.22,48472,20.94,74548.8,10.67,-11.37,-12.35,0,*41
1535004267.46,48473,20.94,74550.8,10.67,-11.51,-12.57,0,*44
1535004268.71,48474,21.0,74552.5,10.67,-11.63,-12.61,0,*47
1535004269.97,48475,20.94,74550.5,10.69,-11.55,-12.53,0,*4C
1535004271.2,48476,20.94,74552.5,10.69,-11.45,-12.65,0,*4B
1535004272.47,48477,20.94,74548.0,10.71,-11.59,-12.65,0,*4E
1535004273.76,48478,20.94,74548.8,10.71,-11.55,-12.53,0,*48
1535004275.03,48479,20.94,74550.8,10.75,-11.51,-12.61,0,*48
1535004276.25,48480,20.94,74550.8,10.75,-12.03,-13.11,0,*4C
1535004277.5,48481,20.94,74550.8,10.75,-12.11,-13.23,0,*4F
1535004278.69,48482,21.0,74554.0,10.77,-12.03,-13.15,0,*48
1535004279.95,48483,20.94,74550.5,10.75,-12.07,-13.19,0,*43
1535004281.18,48484,20.94,74548.5,10.75,-12.21,-13.23,0,*49
1535004282.38,48485,20.94,74550.0,10.77,-12.29,-13.55,0,*43
1535004283.62,48486,21.0,74554.0,10.79,-12.03,-13.29,0,*4D
1535004284.85,48487,21.0,74554.3,10.79,-12.25,-13.51,0,*47
1535004286.08,48488,20.94,74554.3,10.77,-12.21,-13.33,0,*46
1535004287.3,48489,20.94,74552.5,10.79,-12.43,-13.69,0,*42
1535004288.52,48490,20.94,74554.0,10.79,-12.39,-13.55,0,*48
1535004289.78,48491,21.0,74554.3,10.79,-12.57,-13.79,0,*4F
1535004291.06,48492,20.94,74548.3,10.79,-12.79,-13.97,0,*40
1535004292.27,48493,20.94,74554.0,10.77,-12.61,-13.73,0,*4C
1535004293.55,48494,21.0,74552.3,10.79,-12.11,-13.37,0,*42
1535004294.74,48495,21.0,74554.0,10.77,-12.29,-13.47,0,*41
1535004295.99,48496,21.0,74554.0,10.79,-12.25,-13.29,0,*48
1535004297.24,48497,21.0,74554.3,10.79,-12.53,-13.65,0,*40
1535004298.46,48498,21.0,74554.8,10.79,-12.29,-13.43,0,*46
1535004299.71,48499,21.0,74552.8,10.83,-11.77,-13.07,0,*4A
1535004300.95,48500,20.94,74554.8,10.83,-12.79,-13.93,0,*4B
1535004302.21,48501,21.0,74554.0,10.83,-12.61,-13.83,0,*42
1535004303.46,48502,20.94,74556.3,10.83,-12.89,-13.97,0,*42
1535004304.68,48503,21.0,74556.5,10.83,-13.23,-14.37,0,*4F
1535004305.89,48504,20.94,74552.8,10.81,-13.51,-14.69,0,*44
1535004307.09,48505,20.94,74554.3,10.81,-13.43,-14.65,0,*4A
1535004308.28,48506,21.0,74558.3,10.81,-13.11,-14.23,0,*4C
1535004309.53,48507,20.94,74552.5,10.81,-12.57,-13.83,0,*43
1535004310.72,48508,20.94,74554.8,10.81,-12.97,-14.11,0,*4C
1535004311.95,48509,21.0,74556.3,10.81,-13.01,-14.23,0,*42
1535004313.18,48510,21.0,74558.3,10.81,-13.51,-14.79,0,*40
1535004314.42,48511,21.0,74554.0,10.81,-12.79,-13.83,0,*48
1535004315.64,48512,21.0,74554.8,10.79,-12.39,-13.55,0,*43
1535004316.89,48513,20.94,74554.8,10.81,-12.15,-13.29,0,*40
1535004318.09,48514,20.94,74550.0,10.81,-12.25,-13.23,0,*4E
1535004319.31,48515,21.0,74552.8,10.81,-12.15,-13.23,0,*4C
1535004320.54,48516,20.94,74554.3,10.83,-12.21,-13.23,0,*4A
1535004321.79,48517,21.0,74552.0,10.89,-11.93,-13.01,0,*4B
1535004323.02,48518,20.94,74552.5,10.85,-12.25,-13.33,0,*47
1535004324.22,48519,21.0,74554.8,10.89,-12.03,-13.19,0,*46
1535004325.44,48520,21.0,74552.3,10.89,-11.93,-13.15,0,*4A
1535004326.72,48521,21.0,74552.3,10.91,-11.89,-13.01,0,*4C
1535004327.97,48522,21.0,74554.3,10.91,-12.15,-13.23,0,*49
1535004329.16,48523,21.0,74554.0,10.93,-12.03,-13.23,0,*4D
1535004330.36,48524,21.0,74554.8,10.93,-12.29,-13.43,0,*44
1535004331.55,48525,20.94,74554.5,10.93,-12.43,-13.65,0,*4D
1535004332.83,48526,21.0,74552.5,10.95,-13.33,-14.47,0,*49
1535004334.06,48527,20.94,74552.5,10.93,-13.23,-14.51,0,*48
1535004335.28,48528,20.94,74554.0,10.93,-13.01,-14.23,0,*42
1535004336.51,48529,20.94,74554.3,10.93,-12.25,-13.37,0,*46
1535004337.76,48530,20.94,74552.5,10.95,-11.97,-13.11,0,*46
1535004338.96,48531,20.94,74554.0,10.97,-12.03,-13.19,0,*43
1535004340.15,48532,21.0,74552.8,10.97,-12.03,-13.15,0,*4C
1535004341.42,48533,20.94,74552.5,10.99,-11.85,-13.01,0,*4B
1535004342.68,48534,20.94,74554.3,11.01,-12.53,-13.61,0,*42
1535004343.9,48535,21.0,74552.3,10.99,-12.29,-13.43,0,*4E
1535004345.14,48536,20.94,74554.3,10.99,-11.89,-13.11,0,*43
1535004346.37,48537,21.0,74554.0,11.01,-11.89,-13.15,0,*46
1535004347.63,48538,20.94,74554.8,11.01,-11.67,-12.83,0,*47
1535004348.91,48539,21.0,74554.8,11.03,-12.61,-13.83,0,*40
1535004350.18,48540,21.0,74554.8,11.05,-13.33,-14.47,0,*41
1535004351.39,48541,20.94,74552.5,11.05,-12.93,-14.19,0,*40
1535004352.64,48542,20.94,74552.5,11.05,-12.65,-13.79,0,*4B
1535004353.86,48543,21.0,74552.8,11.05,-12.97,-14.23,0,*4F
1535004355.14,48544,20.94,74550.8,11.03,-12.83,-14.05,0,*4F
1535004356.4,48545,20.94,74554.8,11.05,-12.65,-13.79,0,*4C
1535004357.61,48546,21.0,74552.0,11.05,-12.39,-13.55,0,*48
1535004358.85,48547,20.94,74552.3,11.05,-12.11,-13.23,0,*42
1535004360.08,48548,20.94,74550.5,11.05,-11.81,-12.97,0,*49
1535004361.34,48549,21.0,74552.0,11.11,-11.77,-13.15,0,*4F
1535004362.6,48550,21.0,74556.0,11.11,-11.85,-13.11,0,*4E
1535004363.86,48551,21.0,74556.5,11.11,-11.73,-12.89,0,*46
1535004365.14,48552,20.94,74554.3,11.11,-11.85,-13.01,0,*4D
1535004366.4,48553,21.0,74554.0,11.15,-11.81,-12.97,0,*42
1535004367.69,48554,20.94,74554.3,11.15,-11.59,-12.79,0,*40
1535004368.93,48555,20.94,74552.3,11.17,-11.67,-12.93,0,*4A
1535004370.21,48556,20.94,74552.8,11.19,-11.67,-13.01,0,*4D
1535004371.51,48557,20.94,74552.5,11.19,-11.63,-12.75,0,*4A
1535004372.8,48558,20.94,74552.5,11.23,-11.29,-12.53,0,*46
1535004374.07,48559,21.0,74554.8,11.23,-11.11,-12.35,0,*4C
1535004375.34,48560,21.0,74554.5,11.23,-11.41,-12.71,0,*43
1535004376.58,48561,20.94,74548.8,11.25,-11.01,-12.35,0,*40
1535004377.86,48562,20.94,74550.3,11.27,-11.37,-12.53,0,*44
1535004379.09,48563,20.94,74548.5,11.27,-11.19,-12.47,0,*4C
1535004380.33,48564,21.0,74552.3,11.31,-11.19,-12.43,0,*48
1535004381.61,48565,21.0,74554.5,11.31,-11.37,-12.83,0,*49
1535004382.88,48566,20.94,74552.3,11.35,-11.55,-12.79,0,*4F
1535004384.14,48567,20.94,74554.3,11.35,-11.59,-12.79,0,*42
1535004385.41,48568,20.94,74554.5,11.37,-11.41,-12.57,0,*4A
1535004386.7,48569,21.0,74552.3,11.37,-11.33,-12.71,0,*4A
1535004387.97,48570,21.0,74554.8,11.37,-11.55,-12.93,0,*4E
1535004389.24,48571,21.0,74554.0,11.39,-11.93,-13.33,0,*40
1535004390.49,48572,20.94,74554.8,11.41,-11.81,-13.11,0,*4F
1535004391.7,48573,20.94,74554.5,11.39,-12.39,-13.73,0,*45
1535004392.93,48574,21.0,74554.3,11.39,-11.81,-13.19,0,*4E
1535004394.19,48575,20.94,74552.8,11.41,-11.67,-13.07,0,*47
1535004395.42,48576,20.94,74554.5,11.43,-11.51,-12.89,0,*44
1535004396.67,48577,21.0,74556.3,11.45,-11.73,-13.15,0,*47
1535004397.93,48578,20.94,74554.5,11.45,-12.79,-14.23,0,*43
1535004399.14,48579,20.94,74556.3,11.43,-12.21,-13.55,0,*4F
1535004400.4,48580,20.94,74556.5,11.43,-11.77,-13.29,0,*42
1535004401.64,48581,20.94,74552.5,11.43,-12.21,-13.61,0,*4F
1535004402.86,48582,21.0,74558.3,11.43,-12.43,-13.83,0,*44
1535004404.1,48583,20.94,74552.5,11.43,-12.29,-13.61,0,*45
1535004405.35,48584,20.94,74552.3,11.43,-12.35,-13.87,0,*47
1535004406.64,48585,20.94,74554.5,11.45,-12.65,-14.01,0,*4C
1535004407.9,48586,20.94,74554.8,11.45,-13.43,-14.97,0,*45
1535004409.14,48587,20.94,74554.8,11.43,-14.19,-15.81,0,*4C
1535004410.37,48588,21.0,74556.8,11.41,-14.37,-15.99,0,*44
1535004411.61,48589,20.94,74552.5,11.35,-14.51,-16.03,0,*46
1535004412.87,48590,20.94,74552.0,11.37,-14.69,-16.27,0,*41
1535004414.13,48591,20.94,74554.5,11.35,-14.79,-16.27,0,*43
1535004415.39,48592,20.94,74554.3,11.31,-14.61,-16.17,0,*4E
1535004416.63,48593,21.0,74556.8,11.29,-14.43,-15.99,0,*43
1535004417.88,48594,20.94,74556.0,11.27,-14.79,-16.41,0,*45
1535004419.15,48595,20.94,74556.5,11.25,-14.83,-16.17,0,*40
1535004420.38,48596,20.94,74556.0,11.25,-14.55,-16.03,0,*4D
1535004421.64,48597,20.94,74552.8,11.23,-14.69,-16.31,0,*44
1535004422.84,48598,20.94,74554.8,11.21,-14.89,-16.45,0,*44
1535004424.07,48599,21.0,74558.3,11.21,-14.97,-16.45,0,*4A
1535004425.28,48600,21.0,74558.8,11.17,-15.11,-16.59,0,*4E
1535004426.51,48601,20.94,74556.0,11.15,-15.29,-16.89,0,*4B
1535004427.75,48602,20.94,74556.3,11.15,-15.25,-16.83,0,*4E
1535004428.98,48603,20.94,74554.8,11.13,-15.11,-16.51,0,*41
1535004430.23,48604,20.94,74554.5,11.07,-15.01,-16.41,0,*43
1535004431.52,48605,20.94,74554.5,11.11,-14.55,-16.13,0,*42
1535004432.8,48606,21.0,74556.5,11.07,-14.47,-16.03,0,*44
1535004434.03,48607,20.94,74552.8,11.05,-15.21,-16.59,0,*49
1535004435.26,48608,20.94,74556.0,11.01,-15.99,-17.45,0,*4D
1535004436.5,48609,20.94,74556.3,11.01,-15.85,-17.35,0,*46
1535004437.73,48610,21.0,74556.0,11.01,-15.43,-16.79,0,*4D
1535004439.01,48611,21.0,74556.0,10.95,-16.27,-17.79,0,*40
1535004440.25,48612,20.94,74554.3,10.95,-15.99,-17.59,0,*47
1535004441.45,48613,20.94,74556.3,10.93,-15.75,-17.31,0,*4C
1535004442.7,48614,20.94,74556.8,10.91,-15.63,-17.03,0,*4F
1535004443.95,48615,21.0,74556.8,10.91,-15.39,-16.79,0,*4D
1535004445.18,48616,21.0,74558.8,10.89,-15.43,-16.83,0,*4F
1535004446.4,48617,20.94,74556.5,10.85,-15.39,-16.75,0,*46
1535004447.6,48618,21.0,74558.3,10.85,-15.49,-16.89,0,*4D
1535004448.79,48619,20.94,74556.3,10.81,-15.53,-16.93,0,*48
1535004450.04,48620,20.94,74556.8,10.81,-15.57,-17.07,0,*4A
1535004451.29,48621,20.94,74554.3,10.81,-15.85,-17.21,0,*40
1535004452.52,48622,20.94,74558.3,10.77,-15.71,-17.07,0,*45
1535004453.71,48623,20.94,74558.5,10.77,-15.71,-16.97,0,*4C
1535004454.99,48624,20.94,74556.0,10.75,-15.85,-17.41,0,*48
1535004456.24,48625,20.94,74552.8,10.73,-16.09,-17.45,0,*4C
1535004457.5,48626,21.0,74556.8,10.73,-16.13,-17.55,0,*45
1535004458.75,48627,21.0,74558.3,10.71,-15.89,-17.31,0,*44
1535004460.0,48628,20.94,74554.3,10.69,-16.17,-17.63,0,*41
1535004461.19,48629,20.94,74556.3,10.69,-15.99,-17.31,0,*42
1535004462.45,48630,20.94,74552.5,10.63,-16.09,-17.41,0,*4D
1535004463.7,48631,21.0,74556.8,10.63,-15.89,-17.25,0,*45
1535004464.93,48632,20.94,74552.0,10.59,-16.13,-17.31,0,*4A
1535004466.14,48633,20.94,74552.0,10.59,-16.55,-17.87,0,*44
1535004467.35,48634,20.94,74556.0,10.59,-16.59,-17.87,0,*4F
1535004468.6,48635,21.0,74556.5,10.57,-16.23,-17.49,0,*4F
1535004469.86,48636,20.94,74558.3,10.55,-16.09,-17.41,0,*4E
1535004471.14,48637,20.94,74556.0,10.53,-16.69,-18.01,0,*44
1535004472.41,48638,21.0,74560.8,10.53,-17.21,-18.59,0,*4B
1535004473.63,48639,20.94,74556.5,10.49,-17.31,-18.65,0,*4F
1535004474.88,48640,21.0,74558.0,10.45,-17.03,-18.41,0,*4A
1535004476.11,48641,21.0,74556.8,10.45,-16.59,-17.83,0,*44
1535004477.34,48642,20.94,74554.3,10.41,-16.93,-18.21,0,*42
1535004478.56,48643,20.94,74554.0,10.37,-16.83,-18.17,0,*46
1535004479.82,48644,21.0,74556.5,10.37,-16.59,-17.79,0,*41
1535004481.1,48645,20.94,74556.5,10.37,-16.23,-17.45,0,*42
1535004482.33,48646,20.94,74552.8,10.33,-16.37,-17.63,0,*44
1535004483.58,48647,20.94,74552.3,10.33,-15.85,-17.07,0,*4D
1535004484.78,48648,20.94,74556.5,10.33,-15.71,-16.93,0,*45
1535004486.03,48649,20.94,74556.8,10.33,-15.43,-16.65,0,*4C
1535004487.29,48650,21.0,74558.8,10.33,-15.89,-17.07,0,*47
1535004488.56,48651,20.94,74556.5,10.31,-16.31,-17.55,0,*43
1535004489.79,48652,20.94,74556.5,10.31,-16.37,-17.69,0,*49
1535004491.05,48653,20.94,74556.5,10.29,-16.27,-17.45,0,*4E
1535004492.31,48654,20.94,74556.5,10.27,-16.41,-17.55,0,*46
1535004493.53,48655,21.0,74558.0,10.25,-16.41,-17.63,0,*40
1535004494.73,48656,20.94,74556.3,10.25,-16.03,-17.31,0,*42
1535004495.98,48657,20.94,74554.3,10.23,-16.03,-17.21,0,*44
1535004497.26,48658,20.94,74558.3,10.23,-15.81,-17.07,0,*46
1535004498.49,48659,20.94,74558.0,10.23,-15.67,-16.97,0,*47
1535004499.73,48660,20.94,74556.8,10.21,-15.75,-17.07,0,*44
1535004501.01,48661,20.94,74558.0,10.23,-15.81,-17.07,0,*4C
1535004502.24,48662,20.94,74558.3,10.23,-15.67,-16.97,0,*4F
1535004503.44,48663,20.94,74552.3,10.17,-15.71,-16.97,0,*4E